Orbital Elements at Epoch 2459000.5 (2020-May-31.0) TDB
Reference: JPL 26 (heliocentric ecliptic J2000)
Element | Value | Uncertainty (1-sigma) | Units |
e | .1323508601943746 | 4.488e-08 | |
a | 2.528055706073966 | 1.2087e-08 | au |
q | 2.19346535875578 | 1.1571e-07 | au |
i | 4.420449595240284 | 3.8509e-06 | deg |
node | 320.4681957095011 | 5.9468e-05 | deg |
peri | 231.0291157782153 | 6.0912e-05 | deg |
M | 290.8339179808436 | 1.4414e-05 | deg |
tp | 2459282.577899268156 (2021-Mar-09.07789927) | 5.921e-05 | TDB |
period | 1468.17689786753 4.02 | 1.053e-05 2.883e-08 | d yr |
n | .2452020601351827 | 1.7586e-09 | deg/d |
Q | 2.862646053392153 | 1.3687e-08 | au |
|
| | Orbit Determination Parameters
Additional Information
|